Orbital Elements at Epoch 2459200.5 (2020-Dec-17.0) TDB
Reference: JPL 29 (heliocentric ecliptic J2000)
Element | Value | Uncertainty (1-sigma) | Units |
e | .08233240348979602 | 3.3157e-08 | |
a | 2.451250105840204 | 7.9752e-09 | au |
q | 2.249432793071763 | 8.1541e-08 | au |
i | 1.27499767994966 | 3.8084e-06 | deg |
node | 53.05521220762497 | 0.00019557 | deg |
peri | 60.62955950657213 | 0.0001982 | deg |
M | 220.8703616750454 | 3.1235e-05 | deg |
tp | 2459742.247630410513 (2022-Jun-11.74763041) | 0.00012179 | TDB |
period | 1401.78001823213 3.84 | 6.8411e-06 1.873e-08 | d yr |
n | .2568163301785524 | 1.2533e-09 | deg/d |
Q | 2.653067418608645 | 8.6318e-09 | au |
|
| | Orbit Determination Parameters
Additional Information
|